Time,TemperatureF,DewpointF,PressureIn,WindDirection,WindDirectionDegrees,WindSpeedMPH,WindSpeedGustMPH,Humidity,HourlyPrecipIn,Conditions,Clouds,dailyrainin,SoftwareType,DateUTC
2013-05-29 06:33:00,74.0,64.0,29.96,WSW,248,0.0,-999.0,71,-99.99,,,-99.99,,2013-05-29 10:33:00,
2013-05-29 06:42:00,74.0,64.0,29.96,WSW,248,0.0,-999.0,71,-99.99,,,-99.99,,2013-05-29 10:42:00,
2013-05-29 06:53:00,73.0,63.0,29.96,WSW,238,0.0,-999.0,71,-99.99,,,-99.99,,2013-05-29 10:53:00,
2013-05-29 07:02:00,73.0,63.0,29.96,West,260,0.0,-999.0,71,-99.99,,,-99.99,,2013-05-29 11:02:00,
2013-05-29 07:12:00,73.0,63.0,29.96,West,260,0.0,-999.0,71,-99.99,,,-99.99,,2013-05-29 11:12:00,
2013-05-29 07:22:00,73.0,63.0,29.97,SW,221,0.0,-999.0,71,-99.99,,,-99.99,,2013-05-29 11:22:00,
2013-05-29 07:32:00,73.0,63.0,29.97,WNW,300,0.0,-999.0,71,-99.99,,,-99.99,,2013-05-29 11:32:00,
2013-05-29 07:42:00,73.0,63.0,29.97,WNW,300,0.0,-999.0,71,-99.99,,,-99.99,,2013-05-29 11:42:00,
2013-05-29 07:52:00,74.0,64.0,29.97,WSW,254,0.0,-999.0,71,-99.99,,,-99.99,,2013-05-29 11:52:00,
2013-05-29 08:01:00,74.0,64.0,29.97,WSW,257,0.0,-999.0,70,-99.99,,,-99.99,,2013-05-29 12:01:00,
2013-05-29 08:11:00,74.0,64.0,29.97,WSW,257,0.0,-999.0,70,-99.99,,,-99.99,,2013-05-29 12:11:00,
2013-05-29 08:22:00,74.0,64.0,29.98,West,261,0.0,-999.0,71,-99.99,,,-99.99,,2013-05-29 12:22:00,
2013-05-29 08:32:00,74.0,64.0,29.98,West,261,0.0,-999.0,71,-99.99,,,-99.99,,2013-05-29 12:32:00,
2013-05-29 08:42:00,74.0,64.0,29.98,West,261,0.0,-999.0,71,-99.99,,,-99.99,,2013-05-29 12:42:00,
2013-05-29 08:52:00,74.0,65.0,29.98,SSW,211,0.0,-999.0,73,-99.99,,,-99.99,,2013-05-29 12:52:00,
2013-05-29 09:02:00,74.0,64.0,29.98,SSW,211,0.0,-999.0,72,-99.99,,,-99.99,,2013-05-29 13:02:00,
2013-05-29 09:11:00,74.0,64.0,29.98,SSW,211,0.0,-999.0,72,-99.99,,,-99.99,,2013-05-29 13:11:00,
2013-05-29 09:22:00,74.0,64.0,29.98,NW,323,0.0,-999.0,70,-99.99,,,-99.99,,2013-05-29 13:22:00,
2013-05-29 09:32:00,75.0,65.0,29.98,SW,219,0.0,-999.0,70,-99.99,,,-99.99,,2013-05-29 13:32:00,
2013-05-29 09:42:00,75.0,65.0,29.98,SW,219,0.0,-999.0,70,-99.99,,,-99.99,,2013-05-29 13:42:00,
2013-05-29 09:53:00,75.0,65.0,29.97,West,264,0.0,-999.0,70,-99.99,,,-99.99,,2013-05-29 13:53:00,
2013-05-29 10:02:00,75.0,65.0,29.98,West,261,0.0,-999.0,71,-99.99,,,-99.99,,2013-05-29 14:02:00,
2013-05-29 10:11:00,75.0,65.0,29.98,West,261,0.0,-999.0,71,-99.99,,,-99.99,,2013-05-29 14:11:00,
2013-05-29 10:21:00,75.0,65.0,29.97,West,265,0.0,-999.0,72,-99.99,,,-99.99,,2013-05-29 14:21:00,
2013-05-29 10:32:00,76.0,66.0,29.97,West,261,0.0,-999.0,71,-99.99,,,-99.99,,2013-05-29 14:32:00,
2013-05-29 10:42:00,76.0,66.0,29.97,West,261,0.0,-999.0,71,-99.99,,,-99.99,,2013-05-29 14:42:00,
2013-05-29 10:52:00,77.0,67.0,29.97,West,266,0.0,-999.0,71,-99.99,,,-99.99,,2013-05-29 14:52:00,
2013-05-29 11:01:00,78.0,67.0,29.97,WSW,240,0.0,-999.0,70,-99.99,,,-99.99,,2013-05-29 15:01:00,
2013-05-29 11:11:00,78.0,67.0,29.97,WSW,240,0.0,-999.0,70,-99.99,,,-99.99,,2013-05-29 15:11:00,
2013-05-29 11:21:00,79.0,67.0,29.98,WSW,246,1.0,-999.0,67,-99.99,,,-99.99,,2013-05-29 15:21:00,
2013-05-29 11:33:00,80.0,68.0,29.98,WSW,251,2.0,-999.0,66,-99.99,,,-99.99,,2013-05-29 15:33:00,
2013-05-29 11:42:00,80.0,68.0,29.98,WSW,251,2.0,-999.0,66,-99.99,,,-99.99,,2013-05-29 15:42:00,
2013-05-29 11:53:00,81.0,68.0,29.97,WSW,257,2.0,-999.0,64,-99.99,,,-99.99,,2013-05-29 15:53:00,
2013-05-29 12:03:00,81.0,68.0,29.98,WSW,250,2.0,-999.0,64,-99.99,,,-99.99,,2013-05-29 16:03:00,
2013-05-29 12:13:00,81.0,68.0,29.98,WSW,250,2.0,-999.0,64,-99.99,,,-99.99,,2013-05-29 16:13:00,
2013-05-29 12:22:00,82.0,69.0,29.98,WSW,249,1.0,-999.0,64,-99.99,,,-99.99,,2013-05-29 16:22:00,
2013-05-29 12:32:00,82.0,68.0,29.98,WSW,251,2.0,-999.0,63,-99.99,,,-99.99,,2013-05-29 16:32:00,
2013-05-29 12:42:00,82.0,68.0,29.98,WSW,251,2.0,-999.0,63,-99.99,,,-99.99,,2013-05-29 16:42:00,
2013-05-29 12:52:00,84.0,70.0,29.98,SW,224,2.0,-999.0,63,-99.99,,,-99.99,,2013-05-29 16:52:00,
2013-05-29 13:02:00,84.0,70.0,29.98,WSW,249,1.0,-999.0,62,-99.99,,,-99.99,,2013-05-29 17:02:00,
2013-05-29 13:12:00,84.0,70.0,29.98,WSW,249,1.0,-999.0,62,-99.99,,,-99.99,,2013-05-29 17:12:00,
2013-05-29 13:22:00,85.0,70.0,29.99,WNW,288,1.0,-999.0,61,-99.99,,,-99.99,,2013-05-29 17:22:00,
2013-05-29 13:32:00,85.0,70.0,29.98,WNW,284,2.0,-999.0,61,-99.99,,,-99.99,,2013-05-29 17:32:00,
2013-05-29 13:42:00,85.0,70.0,29.98,WNW,284,2.0,-999.0,61,-99.99,,,-99.99,,2013-05-29 17:42:00,
2013-05-29 13:52:00,85.0,70.0,29.98,SW,214,1.0,-999.0,61,-99.99,,,-99.99,,2013-05-29 17:52:00,
2013-05-29 14:01:00,86.0,70.0,29.98,West,270,2.0,-999.0,60,-99.99,,,-99.99,,2013-05-29 18:01:00,
2013-05-29 14:13:00,86.0,70.0,29.99,WNW,287,2.0,-999.0,59,-99.99,,,-99.99,,2013-05-29 18:13:00,
2013-05-29 14:22:00,86.0,70.0,29.99,WNW,287,2.0,-999.0,59,-99.99,,,-99.99,,2013-05-29 18:22:00,
2013-05-29 14:32:00,86.0,70.0,29.99,WNW,282,1.0,-999.0,60,-99.99,,,-99.99,,2013-05-29 18:32:00,
2013-05-29 14:42:00,86.0,70.0,29.99,WNW,282,1.0,-999.0,60,-99.99,,,-99.99,,2013-05-29 18:42:00,
2013-05-29 14:52:00,85.0,70.0,29.99,WNW,291,2.0,-999.0,60,-99.99,,,-99.99,,2013-05-29 18:52:00,
2013-05-29 15:02:00,85.0,69.0,30.00,West,268,2.0,-999.0,59,-99.99,,,-99.99,,2013-05-29 19:02:00,
2013-05-29 15:11:00,85.0,69.0,29.99,West,281,1.0,-999.0,59,-99.99,,,-99.99,,2013-05-29 19:11:00,
2013-05-29 15:22:00,85.0,69.0,29.99,West,281,1.0,-999.0,59,-99.99,,,-99.99,,2013-05-29 19:22:00,
2013-05-29 15:32:00,86.0,70.0,30.00,WNW,301,1.0,-999.0,60,-99.99,,,-99.99,,2013-05-29 19:32:00,
2013-05-29 15:44:00,86.0,70.0,30.00,WNW,301,1.0,-999.0,60,-99.99,,,-99.99,,2013-05-29 19:44:00,
2013-05-29 15:53:00,82.0,69.0,30.00,WNW,298,1.0,-999.0,64,-99.99,,,-99.99,,2013-05-29 19:53:00,
2013-05-29 16:03:00,81.0,69.0,30.00,NW,307,1.0,-999.0,66,-99.99,,,-99.99,,2013-05-29 20:03:00,
2013-05-29 16:11:00,81.0,69.0,30.00,NW,307,1.0,-999.0,66,-99.99,,,-99.99,,2013-05-29 20:11:00,
2013-05-29 16:23:00,79.0,68.0,30.00,WNW,292,1.0,-999.0,69,-99.99,,,-99.99,,2013-05-29 20:23:00,
2013-05-29 16:30:00,79.0,68.0,30.00,WNW,298,1.0,-999.0,70,-99.99,,,-99.99,,2013-05-29 20:30:00,
2013-05-29 16:33:00,79.0,68.0,30.00,NW,306,1.0,-999.0,69,-99.99,,,-99.99,,2013-05-29 20:33:00,
2013-05-29 16:42:00,79.0,68.0,30.00,NW,306,1.0,-999.0,69,-99.99,,,-99.99,,2013-05-29 20:42:00,
2013-05-29 16:53:00,79.0,68.0,30.00,WNW,298,1.0,-999.0,70,-99.99,,,-99.99,,2013-05-29 20:53:00,
2013-05-29 17:02:00,79.0,68.0,30.00,WNW,298,1.0,-999.0,70,-99.99,,,-99.99,,2013-05-29 21:02:00,
2013-05-29 17:12:00,79.0,68.0,30.00,WNW,298,1.0,-999.0,70,-99.99,,,-99.99,,2013-05-29 21:12:00,
2013-05-29 17:22:00,79.0,68.0,30.00,WNW,298,1.0,-999.0,70,-99.99,,,-99.99,,2013-05-29 21:22:00,